Location: Oak Cliff
(32.7393°N, 96.8111°W)
Time: 08:47:33
(UTC+00:00)

Daily predictions for brighter satellites

Satellite Brightness Start Highest point End
(mag) Time Altitude Azimuth Time Altitude Azimuth Time Altitude Azimuth
Hubble Space Telescope 2.1 12:09:04 11° SW 12:12:14 29° SSE 12:15:33 10° ESE
Cosmos 2360 Rocket 2.2 12:07:27 10° SSW 12:13:03 88° WNW 12:18:41 10° NNE
Cosmos 1400 Rocket 4.4 12:14:22 15° WNW 12:14:22 15° WNW 12:15:52 10° NW
Cosmos 2278 3.9 12:08:14 10° SW 12:13:40 50° WNW 12:19:08 10° N
USA 229 DEB 4.3 12:08:52 10° S 12:14:20 50° ESE 12:20:19 10° NE
USA 229 4.4 12:08:58 10° S 12:14:26 49° ESE 12:20:23 10° NE
DELTA 2 R/B (1) 3.8 12:11:06 17° W 12:15:19 56° NNW 12:20:47 10° ENE
ATLAS 3B R/B 3.9 12:09:14 10° S 12:16:15 50° ESE 12:23:41 10° NE
Cosmos 2333 4.3 12:13:33 10° SSW 12:19:15 83° ESE 12:24:56 10° NNE
Cosmos 1802 Rocket 4.1 12:15:54 10° S 12:22:05 84° E 12:28:23 10° N
Cosmos 1461 4.3 12:20:18 10° N 12:23:35 31° ENE 12:26:47 10° ESE
GP-B 3.3 12:19:54 10° N 12:24:06 48° W 12:28:17 10° SSW
Cosmos 1725 Rocket 4.2 12:18:21 10° S 12:24:29 80° E 12:30:41 10° N
Cosmos 2263 Rocket 3.6 12:25:27 10° WNW 12:28:35 16° W 12:31:47 10° SW
Helios 1A Rocket 4.2 12:27:50 10° SE 12:30:48 33° ENE 12:33:46 10° N
Cosmos 2219 4.1 12:26:24 10° NW 12:31:05 27° WSW 12:35:44 10° SSW
Cosmos 2173 Rocket 4.2 12:25:33 10° SSW 12:31:45 54° W 12:37:58 10° N
Cosmos 1484 Rocket 2.4 12:28:44 10° N 12:32:13 73° WNW 12:35:40 10° SSW
Cosmos 1818 3.6 12:31:41 10° SW 12:37:02 67° WNW 12:42:27 10° NNE
Cosmos 2227 4.2 12:31:47 10° NNW 12:37:27 79° WSW 12:43:07 10° SSE
Cosmos 1346 Rocket 3.2 12:36:01 10° NNW 12:39:22 34° W 12:42:42 10° SSW
Cosmos 1538 Rocket 4.2 12:36:31 10° NNW 12:41:36 51° WSW 12:46:36 10° S
Landsat 7 4.0 12:38:19 10° NNE 12:42:59 79° ESE 12:47:36 10° S
